[[{"header":{"parameterUnit":"m.s-1","parameterCategory":1,"la1":30.2991,"la2":30.254,"lo1":-89.0895,"lo2":-89.0444,"dy":0.0017,"dx":0.0017,"nx":28,"ny":28,"refTime":"2025-07-15T21:00:00:Z","depth":0,"parameterNumber":2,"parameterNumberName":"U-component_of_WINDS"},"data":[0,0,0,0,0,0,0,0,0,0,0,0,0,0,0,0,0,0,0,0,0,0,0,0,0,0,0,0,0,0,0,0,0,0,0,0,0,0,0,0,0,0,0,0,0,0,0,0,0,0,0,0,0,0,0,0,0,0,1.9471,1.9472,0,1.9511,1.9512,1.9512,1.9481,1.9479,1.9478,1.9477,1.9518,1.952,1.9522,0,0,0,0,0,0,0,0,0,0,0,0,0,1.9367,1.9369,1.9471,1.9472,1.9472,1.9511,1.9512,1.9512,1.9481,1.9479,1.9478,1.9476,1.9517,1.952,1.9522,0,0,0,0,0,0,0,0,0,0,0,0,0,1.941,1.937,1.9471,1.9461,1.9461,1.9511,1.9512,1.9513,1.9481,1.9479,1.9477,1.9475,1.9516,1.9519,1.9523,1.9585,0,0,1.9534,1.9535,0,0,0,0,0,0,0,0,1.9408,1.9414,1.9462,1.9462,1.9462,1.9489,1.949,1.9537,1.9482,1.9474,1.9477,1.9474,1.951,1.9514,1.9526,1.9587,1.9589,1.9534,1.9536,1.9538,1.9538,0,0,0,0,0,0,0,1.9405,1.9412,1.9487,1.9463,1.9463,1.9455,1.9459,1.9499,1.9502,1.9474,1.9472,1.9477,1.9509,1.9522,1.9526,1.9589,1.9534,1.9537,1.9539,1.954,1.9705,1.9707,0,0,0,0,0,0,1.9403,1.941,1.9486,1.9488,1.9429,1.9458,1.9463,1.9482,1.9502,1.9503,1.9479,1.9476,1.9517,1.9522,1.9528,1.9603,1.9537,1.9541,1.9543,1.9703,1.9705,1.9708,0,0,0,0,0,0,1.9401,1.941,1.9484,1.9449,1.9457,1.9462,1.9484,1.9484,1.9497,1.9506,1.9506,1.9492,1.9516,1.9523,1.9571,1.9604,1.9542,1.9546,1.97,1.9704,1.9707,1.9754,0,0,0,0,0,0,1.9398,1.9409,1.9433,1.9449,1.9459,1.9527,1.9486,1.9486,1.9503,1.9499,1.9518,1.9519,1.9515,1.9566,1.9575,1.9608,1.9548,1.9697,1.9702,1.9706,1.975,1.9759,1.9766,0,0,0,0,0,1.9394,1.9445,1.9435,1.9444,1.9489,1.9529,1.9535,1.953,1.9506,1.953,1.9536,1.9518,1.9599,1.9572,1.9581,1.9616,1.9695,1.97,1.9705,1.9746,1.9757,1.9766,0,0,0,0,0,0,1.9432,1.9446,1.9436,1.9492,1.951,1.9524,1.9554,1.9541,1.9566,1.9561,1.9553,1.9557,1.9609,1.9617,1.9586,1.9677,1.9643,1.965,1.9671,1.9681,1.969,1.9688,1.9551,0,0,0,0,0,1.9447,1.9478,1.9489,1.9538,1.9548,1.9549,1.9567,1.9561,1.9579,1.9586,1.9595,1.9613,1.9642,1.9662,1.9689,1.975,1.9754,1.9778,1.9787,1.9793,1.98,1.9835,1.9846,1.9725,1.9725,1.9724,0,0,1.9478,1.949,1.951,1.9546,1.9559,1.9592,1.9556,1.9592,1.9617,1.9591,1.9639,1.9646,1.9665,1.972,1.9745,1.9728,1.9835,1.98,1.9805,1.9809,1.9841,1.9853,1.9863,1.9728,1.9727,1.9727,0,0,1.9552,1.9564,1.9607,1.962,1.9641,1.9641,1.9652,1.9668,1.9672,1.9719,1.9701,1.973,1.978,1.9795,1.981,1.989,1.9875,1.9898,1.9943,1.9977,1.9986,1.9995,2.0025,2.0036,1.9905,1.9905,1.9905,0,1.9589,1.9638,1.963,1.9669,1.9685,1.9664,1.9708,1.9721,1.9749,1.9761,1.9742,1.9806,1.9817,1.9876,1.9896,1.9908,1.992,1.9897,1.9985,1.9994,2.0002,2.0031,2.0042,1.9908,1.9908,1.9907,1.9907,0,1.9683,1.9717,1.9749,1.9778,1.9798,1.9839,1.9837,1.9858,1.9851,1.9854,1.9903,1.9915,1.9946,1.9959,1.9951,2.0018,2.0007,1.9986,1.9952,2.0016,2.0044,2.0055,1.9912,1.9911,1.991,1.991,0,0,1.9784,1.9807,1.9819,1.9832,1.9853,1.9879,1.9919,1.9949,1.9968,1.9987,2.0022,2.0065,2.0046,2.0063,2.0056,2.0086,2.0151,2.0062,2.0062,2.008,2.0226,2.0244,2.0256,2.014,2.0142,2.0144,2.0226,0,1.9861,1.9931,1.9925,1.9991,2.0024,2.0003,2.0038,2.0054,2.0058,2.0086,2.0089,2.0121,2.0094,2.0104,2.0131,2.0137,2.018,2.013,2.0173,2.0175,2.0171,2.027,2.0288,2.0365,2.0236,2.0238,2.0239,0,1.9961,1.9985,2.0054,2.0071,2.0084,2.0115,2.0143,2.0169,2.0188,2.0188,2.0207,2.0196,2.0236,2.0199,2.0256,2.0222,2.0239,2.0244,2.0247,2.0253,2.0212,2.0281,2.0389,2.0402,2.0255,2.0254,2.0253,0,2.003,2.0079,2.0128,2.0139,2.0159,2.0182,2.0191,2.0207,2.0226,2.0249,2.0261,2.0289,2.0305,2.0327,2.0324,2.0297,2.0382,2.0345,2.0385,2.0385,2.0406,2.0405,2.0521,2.0412,2.0412,2.0412,2.0412,0,2.0119,2.0163,2.016,2.019,2.0239,2.0231,2.0279,2.0286,2.03,2.0332,2.0314,2.0344,2.0337,2.0367,2.0364,2.0413,2.0419,2.0422,2.0421,2.0425,2.0425,2.0437,2.0433,2.0415,2.0414,2.0414,2.0413,0,2.0206,2.0205,2.0257,2.0271,2.0276,2.0311,2.0324,2.0352,2.0354,2.0394,2.0403,2.0406,2.044,2.0438,2.0476,2.0475,2.0535,2.0527,2.0529,2.0529,2.057,2.0567,2.07,2.0718,2.0595,2.0596,2.0597,0,2.0264,2.0297,2.0315,2.0335,2.0346,2.0377,2.0396,2.039,2.041,2.0433,2.046,2.0492,2.0518,2.0573,2.0579,2.0608,2.0602,2.0647,2.0607,2.061,2.0606,2.0605,2.0609,2.0655,2.0657,2.0658,2.0659,0,2.0367,2.0365,2.0393,2.0422,2.0445,2.0467,2.0487,2.0504,2.0499,2.0523,2.0558,2.0578,2.0617,2.065,2.0678,2.0687,2.0673,2.0671,2.0682,2.0688,2.0689,2.0691,2.0553,2.0669,2.0668,2.0667,2.0666,2.0666,2.0443,2.0473,2.049,2.0522,2.0536,2.0555,2.0583,2.0589,2.0617,2.0649,2.0643,2.0682,2.07,2.0736,2.0748,2.0779,2.0763,2.0779,2.0784,2.0788,2.0794,2.0682,2.0784,2.0783,2.0783,2.0783,2.0783,0,2.0548,2.0558,2.0587,2.0616,2.0642,2.0624,2.0646,2.0668,2.0703,2.072,2.0746,2.0787,2.0818,2.0826,2.0857,2.088,2.0875,2.0889,2.0889,2.0891,2.0805,2.0794,2.0893,2.0893,2.0893,2.0893,2.0893,2.0893,2.0606,2.0656,2.0656,2.0712,2.0721,2.076,2.0774,2.0792,2.0805,2.0851,2.0878,2.0882,2.0896,2.0928,2.0956,2.0958,2.0971,2.0989,2.0988,2.0908,2.0897,2.0887,2.0876,2.0991,2.0991,2.1072,2.1072,2.1073]},{"header":{"parameterUnit":"m.s-1","parameterCategory":1,"la1":30.2991,"la2":30.254,"lo1":-89.0895,"lo2":-89.0444,"dy":0.0017,"dx":0.0017,"nx":28,"ny":28,"refTime":"2025-07-15T21:00:00:Z","depth":0,"parameterNumber":3,"parameterNumberName":"V-component_of_WINDS"},"data":[0,0,0,0,0,0,0,0,0,0,0,0,0,0,0,0,0,0,0,0,0,0,0,0,0,0,0,0,0,0,0,0,0,0,0,0,0,0,0,0,0,0,0,0,0,0,0,0,0,0,0,0,0,0,0,0,0,0,-2.8101,-2.8103,0,-2.8238,-2.8239,-2.8241,-2.8253,-2.8252,-2.825,-2.8249,-2.8388,-2.8393,-2.8398,0,0,0,0,0,0,0,0,0,0,0,0,0,-2.7853,-2.7858,-2.8101,-2.8103,-2.8105,-2.8237,-2.8239,-2.8241,-2.8253,-2.8252,-2.825,-2.8248,-2.8386,-2.8392,-2.8398,0,0,0,0,0,0,0,0,0,0,0,0,0,-2.7972,-2.7859,-2.8101,-2.8127,-2.8131,-2.8237,-2.8239,-2.8242,-2.8254,-2.8252,-2.825,-2.8248,-2.8384,-2.8392,-2.8399,-2.8489,0,0,-2.8422,-2.8426,0,0,0,0,0,0,0,0,-2.7965,-2.7981,-2.8121,-2.8125,-2.813,-2.8226,-2.8203,-2.8324,-2.8254,-2.8207,-2.8249,-2.8246,-2.8336,-2.8347,-2.8378,-2.8495,-2.8501,-2.8423,-2.8428,-2.8431,-2.8433,0,0,0,0,0,0,0,-2.7957,-2.7975,-2.8155,-2.8123,-2.8129,-2.8132,-2.8147,-2.8226,-2.8282,-2.8211,-2.8212,-2.8228,-2.8338,-2.837,-2.8381,-2.8503,-2.8423,-2.8429,-2.8434,-2.8437,-2.8704,-2.8706,0,0,0,0,0,0,-2.7944,-2.7969,-2.8151,-2.8159,-2.8041,-2.8138,-2.8155,-2.8197,-2.8281,-2.8292,-2.823,-2.8228,-2.8358,-2.8372,-2.8386,-2.8498,-2.8431,-2.8438,-2.8442,-2.8701,-2.8704,-2.8707,0,0,0,0,0,0,-2.7939,-2.796,-2.8145,-2.8064,-2.8088,-2.8145,-2.8193,-2.8201,-2.8234,-2.8295,-2.8305,-2.8253,-2.8357,-2.8375,-2.8464,-2.8503,-2.8441,-2.8448,-2.8698,-2.8702,-2.8706,-2.8721,0,0,0,0,0,0,-2.7931,-2.7958,-2.7992,-2.8065,-2.8093,-2.8221,-2.8195,-2.8205,-2.8247,-2.8246,-2.8319,-2.833,-2.8357,-2.8452,-2.8471,-2.8512,-2.8454,-2.8695,-2.87,-2.8705,-2.8717,-2.8725,-2.8732,0,0,0,0,0,-2.7922,-2.7991,-2.7994,-2.8016,-2.8137,-2.8223,-2.8239,-2.8269,-2.825,-2.8285,-2.8325,-2.8327,-2.8495,-2.8461,-2.8483,-2.8526,-2.8693,-2.8699,-2.8704,-2.8714,-2.8724,-2.8731,0,0,0,0,0,0,-2.792,-2.8001,-2.8005,-2.8099,-2.8154,-2.8225,-2.827,-2.8277,-2.8339,-2.8335,-2.837,-2.8387,-2.8474,-2.8509,-2.847,-2.8619,-2.8592,-2.8602,-2.8593,-2.8602,-2.8609,-2.8599,-2.846,0,0,0,0,0,-2.7931,-2.7994,-2.8061,-2.8137,-2.8165,-2.8213,-2.8251,-2.827,-2.8329,-2.8352,-2.8398,-2.8455,-2.8521,-2.8563,-2.8627,-2.8723,-2.874,-2.8763,-2.877,-2.8776,-2.8784,-2.8839,-2.8851,-2.8726,-2.8726,-2.8726,0,0,-2.7953,-2.8005,-2.8043,-2.8138,-2.8183,-2.8249,-2.8232,-2.8301,-2.8351,-2.8362,-2.8449,-2.8485,-2.8551,-2.8644,-2.8687,-2.8676,-2.8823,-2.8783,-2.8787,-2.8793,-2.8847,-2.8858,-2.8869,-2.873,-2.8729,-2.8729,0,0,-2.8027,-2.8072,-2.8142,-2.8187,-2.8256,-2.8288,-2.8304,-2.8375,-2.84,-2.8487,-2.8498,-2.8557,-2.8669,-2.8716,-2.8755,-2.8849,-2.8854,-2.8869,-2.8905,-2.8959,-2.8969,-2.8977,-2.9012,-2.9024,-2.8877,-2.8877,-2.8877,0,-2.8046,-2.8145,-2.8176,-2.8246,-2.8288,-2.8303,-2.8374,-2.8417,-2.8503,-2.8532,-2.8518,-2.866,-2.8705,-2.881,-2.8834,-2.8864,-2.8885,-2.886,-2.8965,-2.8974,-2.8983,-2.9016,-2.9029,-2.8878,-2.8878,-2.8878,-2.8878,0,-2.8165,-2.8234,-2.8281,-2.8365,-2.8413,-2.8482,-2.8525,-2.857,-2.8585,-2.8619,-2.8709,-2.8764,-2.884,-2.8866,-2.8881,-2.8974,-2.8965,-2.8957,-2.8932,-2.8995,-2.9028,-2.9041,-2.888,-2.888,-2.8879,-2.8879,0,0,-2.824,-2.8342,-2.8359,-2.8398,-2.8475,-2.8529,-2.86,-2.8675,-2.8714,-2.8773,-2.8834,-2.893,-2.8924,-2.8968,-2.8988,-2.9035,-2.9108,-2.9022,-2.9024,-2.9037,-2.9215,-2.9221,-2.9235,-2.9112,-2.9114,-2.9116,-2.921,0,-2.8324,-2.8451,-2.8482,-2.8591,-2.8656,-2.8672,-2.8734,-2.8789,-2.8823,-2.8883,-2.892,-2.8987,-2.8974,-2.9001,-2.9048,-2.9089,-2.9144,-2.9083,-2.917,-2.9172,-2.9153,-2.9252,-2.9257,-2.9343,-2.9223,-2.9225,-2.9226,0,-2.8437,-2.85,-2.8616,-2.8687,-2.8715,-2.8771,-2.8843,-2.89,-2.8963,-2.8984,-2.9034,-2.9051,-2.9127,-2.9097,-2.9203,-2.916,-2.9198,-2.9224,-2.9228,-2.9237,-2.9203,-2.9264,-2.9371,-2.9384,-2.9246,-2.9245,-2.9243,0,-2.8482,-2.8595,-2.868,-2.8712,-2.8797,-2.8836,-2.8873,-2.8934,-2.8978,-2.9041,-2.907,-2.9141,-2.918,-2.9235,-2.9271,-2.9246,-2.9374,-2.9347,-2.9395,-2.9394,-2.9421,-2.9419,-2.9536,-2.9444,-2.9444,-2.9444,-2.9444,0,-2.8572,-2.8642,-2.8701,-2.8753,-2.8833,-2.8869,-2.8947,-2.8984,-2.9039,-2.9099,-2.9117,-2.9173,-2.9217,-2.9279,-2.9307,-2.9391,-2.9409,-2.9429,-2.9435,-2.9427,-2.9425,-2.9453,-2.9448,-2.9447,-2.9447,-2.9446,-2.9445,0,-2.8634,-2.8677,-2.877,-2.8843,-2.8863,-2.8919,-2.8982,-2.9034,-2.9069,-2.9145,-2.9164,-2.9219,-2.9294,-2.9335,-2.9428,-2.9448,-2.9542,-2.9545,-2.952,-2.9523,-2.9569,-2.9564,-2.9708,-2.973,-2.9623,-2.9624,-2.9625,0,-2.8689,-2.8744,-2.8824,-2.8865,-2.8904,-2.897,-2.9016,-2.9054,-2.91,-2.9177,-2.922,-2.9296,-2.9358,-2.9477,-2.9525,-2.9597,-2.9603,-2.9648,-2.9614,-2.9605,-2.9605,-2.9601,-2.9608,-2.9654,-2.9655,-2.9656,-2.9657,0,-2.8782,-2.8801,-2.8865,-2.8938,-2.8991,-2.905,-2.9108,-2.9142,-2.919,-2.9241,-2.9318,-2.9367,-2.9463,-2.9538,-2.9615,-2.9653,-2.9664,-2.9667,-2.9682,-2.9675,-2.9659,-2.9669,-2.9538,-2.9664,-2.9663,-2.9663,-2.9662,-2.9662,-2.8843,-2.8893,-2.8958,-2.903,-2.9078,-2.9132,-2.9185,-2.9227,-2.9292,-2.9374,-2.9392,-2.9474,-2.9537,-2.9641,-2.9682,-2.9747,-2.9738,-2.976,-2.9765,-2.977,-2.9772,-2.9648,-2.9761,-2.9761,-2.976,-2.976,-2.976,0,-2.8938,-2.8981,-2.9046,-2.9128,-2.9185,-2.919,-2.9256,-2.9303,-2.9374,-2.9433,-2.9495,-2.9584,-2.9658,-2.9713,-2.9789,-2.983,-2.9837,-2.9849,-2.9846,-2.9856,-2.9775,-2.9755,-2.9842,-2.9842,-2.9842,-2.9842,-2.9842,-2.9842,-2.8994,-2.9079,-2.9106,-2.9216,-2.9259,-2.9339,-2.9376,-2.9427,-2.9474,-2.9573,-2.9635,-2.9671,-2.9729,-2.9809,-2.9877,-2.9892,-2.9919,-2.9931,-2.9946,-2.987,-2.9861,-2.9852,-2.9834,-2.9936,-2.9936,-3.0021,-3.0022,-3.0022]}]]